Regional Weather Roundup
Issued by NWS

Home | Current Version | Previous Version | Text Only | Print | Product List | Glossary On
Versions: 1 2 3 4 5 6 7 8 9 10 11 12 13 14 15 16 17 18 19 20 21 22 23 24 25 26 27
000
ASUS42 KKEY 310410
RWRKEY

FLORIDA REGIONAL WEATHER ROUNDUP FOR THE FLORIDA KEYS
NATIONAL WEATHER SERVICE KEY WEST FLORIDA
1200 AM EDT TUE MAY 31 2016

...SOUTH FLORIDA AND THE KEYS...

CITY           SKY/WX    TMP DP  RH WIND       PRES   REMARKS
FORT MYERS     CLOUDY    74  70  87 CALM      29.98S
SW REGIONAL AP CLOUDY    73  70  90 CALM      29.99S
NAPLES         CLEAR     75  69  81 CALM      29.98S
MIAMI          MOCLDY    80  70  71 E3        29.98F
WEST KENDALL   CLOUDY    76  72  87 NW5       29.98F
HOMESTEAD      NOT AVBL
MARATHON       PTCLDY    82  71  69 E6        29.97F
BOCA CHICA NAS PTCLDY    80  72  76 E8        29.97F
KEY WEST INTL  PTCLDY    81  74  79 E9        29.97F

...INTERNATIONAL WEATHER...

CITY           SKY/WX    TMP DP  RH WIND       PRES   REMARKS
NASSAU BAHAMAS PTCLDY    79  72  78 E7        29.99S
CANCUN MEXICO  MOCLDY    82  73  74 NE8       29.94S
COZUMEL MEXICO PTCLDY    75  73  94 E3        29.93F

ADJACENT COASTAL WATERS...

STATION/POSITION TIME  SKY/WX   TEMP    WIND        PRES    WAVE
                                AIR SEA DIR/SP/G            HT/PER
                 (UTC)          (F)     (DEG/KT/KT) (MB)    (FT/S)
PULASKI SHOAL LI 0400            82     140/  6/  8 1015.0F
SAND KEY         0350            81     120/ 10/ 12 1015.3F
SOMBRERO KEY     NOT AVBL
LONG KEY         0300            82 87  120/  8/ 10 1015.7R
MOLASSES REEF    NOT AVBL
FOWEY ROCKS      0400            81 83  110/  8/  9 1015.5F

$$




USA.gov is the U.S. government's official web portal to all federal, state and local government web resources and services.